Home > Time Zones > World Clock > Weather > U.S.A. > Knox > Past weeks

Flag for U.S.A. Weather past 2 weeks in Knox, Indiana, U.S.A.

Now
56 °F

Clear.


Feels Like: 56 °F
Forecast: 43 / 68 °F
Wind: 3 mph from Northeast

Location: Porter County Municipal Airport

Current Time: Sep 17, 2014 at 8:43:41 PM

Latest Report: Sep 17, 2014 at 7:53 PM


Visibility: 10 mi

Pressure: 30.01 "Hg

Humidity: 75%

Dew point: 48 °F

Location of KnoxLocation

Historic Weather in Knox — Graph

°F

Knox temperature yesterday

Maximum temperature yesterday: 66 °F (at 3:53 PM)
Minimum temperature yesterday: 48 °F (at 9:53 PM)
Average temperature yesterday: 56 °F

Past Weeks' High & Low Weather Summary

 TemperatureHumidityPressure
High89 °F (Sep 5, 3:53 PM)100% (Sep 5, 6:53 PM)30.36 "Hg (Sep 5, 6:53 PM)
Low40 °F (Sep 14, 1:53 AM)40% (Sep 7, 3:53 PM)29.59 "Hg (Sep 10, 4:53 PM)
Average62 °F79%30.09 "Hg
* Reported Sep 2 6:53 PM — Sep 17 6:53 PM, Knox, Weather by CustomWeather, © 2014

Note: Actual official high and low records may vary slightly from our data, if they occured in-between our weather recording intervals... More about our weather records

Advertising

Knox weather history for previous 24 hours

 ConditionsComfort  
Time TempWeatherWind HumidityBarometerVisibility
6:53 PM
Sep 17
60 °FSunny.3 mph67%29.99 "Hg10 mi
5:53 PM66 °FSunny.No wind56%29.98 "Hg10 mi
4:53 PM68 °FPassing clouds.7 mph47%29.98 "Hg10 mi
3:53 PM68 °FSunny.6 mph45%29.99 "Hg10 mi
2:53 PM68 °FScattered clouds.5 mph45%30.00 "Hg10 mi
1:53 PM67 °FPassing clouds.7 mph49%30.02 "Hg10 mi
12:53 PM66 °FSunny.5 mph45%30.03 "Hg10 mi
11:53 AM65 °FPartly sunny.5 mph49%30.04 "Hg10 mi
10:53 AM64 °FSunny.5 mph58%30.05 "Hg10 mi
9:53 AM59 °FSunny.No wind72%30.05 "Hg10 mi
8:53 AM55 °FSunny.No wind87%30.06 "Hg7 mi
7:57 AM49 °FFog.No wind93%30.07 "Hg1 mi
6:53 AM43 °FFog.No wind93%30.08 "Hg0 mi
5:53 AM41 °FFog.No wind96%30.07 "Hg0 mi
4:53 AM43 °FFog.No wind97%30.07 "Hg0 mi
3:53 AM43 °FFog.No wind97%30.08 "Hg1 mi
3:01 AM45 °FFog.No wind93%30.08 "Hg1 mi
2:04 AM45 °FFog.No wind97%30.09 "Hg4 mi
12:53 AM45 °FFog.No wind97%30.10 "Hg5 mi
12:03 AM45 °FFog.No wind97%30.10 "Hg2 mi
10:53 PM
Sep 16
48 °FClear.No wind96%30.11 "Hg10 mi
9:53 PM48 °FClear.No wind93%30.11 "Hg10 mi
8:53 PM50 °FClear.No wind89%30.11 "Hg10 mi
Weather by CustomWeather, © 2014

See weather overviewHow to use our weather pages